TimeMST,TemperatureF,Dew PointF,Humidity,Sea Level PressureIn,VisibilityMPH,Wind Direction,Wind SpeedMPH,Gust SpeedMPH,PrecipitationIn,Events,Conditions,WindDirDegrees,DateUTC
12:53 AM,46.9,28.9,50,29.67,10.0,SW,10.4,-,N/A,,Clear,230,2013-12-05 07:53:00
1:53 AM,45.0,30.0,56,29.67,10.0,South,4.6,-,N/A,,Clear,190,2013-12-05 08:53:00
2:53 AM,44.1,30.9,60,29.68,10.0,SSW,3.5,-,N/A,,Clear,200,2013-12-05 09:53:00
3:53 AM,43.0,30.9,62,29.68,10.0,South,3.5,-,N/A,,Clear,180,2013-12-05 10:53:00
4:53 AM,45.0,32.0,60,29.68,10.0,South,8.1,-,N/A,,Clear,180,2013-12-05 11:53:00
5:53 AM,46.0,32.0,58,29.70,10.0,South,10.4,-,N/A,,Clear,190,2013-12-05 12:53:00
6:53 AM,45.0,32.0,60,29.70,10.0,South,10.4,-,N/A,,Partly Cloudy,180,2013-12-05 13:53:00
7:53 AM,46.0,32.0,58,29.72,10.0,South,16.1,-,N/A,,Scattered Clouds,180,2013-12-05 14:53:00
8:53 AM,46.9,32.0,56,29.73,10.0,South,17.3,-,N/A,,Mostly Cloudy,180,2013-12-05 15:53:00
9:53 AM,50.0,33.1,52,29.73,10.0,South,17.3,-,N/A,,Partly Cloudy,180,2013-12-05 16:53:00
10:53 AM,51.1,33.1,50,29.73,10.0,South,21.9,32.2,N/A,,Partly Cloudy,190,2013-12-05 17:53:00
11:53 AM,50.0,33.1,52,29.71,10.0,SSW,23.0,29.9,N/A,,Clear,210,2013-12-05 18:53:00
12:53 PM,52.0,30.9,45,29.68,10.0,WSW,10.4,23.0,N/A,,Partly Cloudy,240,2013-12-05 19:53:00
1:53 PM,53.1,28.0,38,29.67,10.0,SW,19.6,32.2,N/A,,Partly Cloudy,230,2013-12-05 20:53:00
2:53 PM,52.0,25.0,35,29.69,10.0,WSW,24.2,32.2,N/A,,Scattered Clouds,250,2013-12-05 21:53:00
3:53 PM,50.0,24.1,36,29.72,10.0,WSW,17.3,28.8,N/A,,Clear,250,2013-12-05 22:53:00
4:53 PM,46.0,25.0,44,29.74,10.0,West,9.2,-,N/A,,Clear,270,2013-12-05 23:53:00
5:53 PM,42.1,25.0,51,29.77,10.0,WSW,3.5,-,N/A,,Partly Cloudy,250,2013-12-06 00:53:00
6:53 PM,43.0,23.0,45,29.78,10.0,WSW,8.1,-,N/A,,Partly Cloudy,240,2013-12-06 01:53:00
7:53 PM,39.0,23.0,53,29.81,10.0,North,3.5,-,N/A,,Mostly Cloudy,10,2013-12-06 02:53:00
8:53 PM,37.9,23.0,55,29.82,10.0,NW,5.8,-,N/A,,Mostly Cloudy,320,2013-12-06 03:53:00
9:53 PM,33.1,24.1,70,29.84,10.0,East,6.9,-,N/A,,Mostly Cloudy,100,2013-12-06 04:53:00
10:53 PM,34.0,24.1,67,29.86,10.0,Calm,Calm,-,N/A,,Overcast,0,2013-12-06 05:53:00
11:53 PM,32.0,23.0,69,29.88,10.0,ENE,4.6,-,N/A,,Partly Cloudy,60,2013-12-06 06:53:00